Location: Haliburton Scout Reserve
(45.0900°N, 78.3200°W)
Time: 15:39:02
(UTC-05:00)

IDEFIX/ARIANE 42P - Visible Passes

Search period start: 06 February 2016 00:00
Search period end: 16 February 2016 00:00
Orbit: 786 x 802 km, 98.2° (Epoch: 06 February)

Date Brightness Start Highest point End Pass type
(mag) Time Alt. Az. Time Alt. Az. Time Alt. Az.
06 Feb 5.0 06:33:33 10° NE 06:37:59 27° E 06:42:23 10° SSE visible
06 Feb 2.9 17:53:48 10° SE 17:58:47 47° ENE 18:03:49 10° N visible
06 Feb 4.9 19:34:21 10° SSW 19:38:36 25° W 19:42:53 10° NW visible
07 Feb 5.7 06:06:20 10° NE 06:09:22 15° E 06:12:24 10° SE visible
07 Feb 3.9 19:05:07 10° S 19:10:05 43° W 19:15:07 10° NNW visible
08 Feb 2.8 18:36:28 10° S 18:41:42 76° WSW 18:47:00 10° NNW visible
09 Feb 4.5 06:47:58 10° NNE 06:52:49 36° E 06:57:37 10° SSE visible
09 Feb 2.6 18:08:15 10° SSE 18:13:26 63° ENE 18:18:39 10° N visible
09 Feb 5.3 19:49:55 10° SW 19:53:29 18° W 19:57:04 10° NW visible
10 Feb 5.5 06:20:21 10° NE 06:24:17 21° E 06:28:10 10° SE visible
10 Feb 4.5 19:20:16 10° SSW 19:24:55 32° W 19:29:37 10° NNW visible
11 Feb 6.0 05:53:56 10° ENE 05:55:36 11° E 05:57:17 10° ESE visible
11 Feb 3.4 18:51:19 10° S 18:56:28 56° W 19:01:40 10° NNW visible
12 Feb 2.6 18:22:52 10° SSE 18:28:08 84° ENE 18:33:26 10° NNW visible
12 Feb 5.7 20:05:57 10° WSW 20:08:24 13° W 20:10:51 10° WNW visible
13 Feb 5.0 06:34:38 10° NE 06:39:09 28° E 06:43:36 10° SSE visible
13 Feb 5.0 19:35:36 10° SW 19:39:46 24° W 19:43:58 10° NW visible
14 Feb 5.7 06:07:22 10° NE 06:10:32 16° E 06:13:42 10° SE visible
14 Feb 4.0 19:06:18 10° SSW 19:11:15 41° W 19:16:14 10° NNW visible
15 Feb 2.9 18:37:36 10° S 18:42:51 73° WSW 18:48:09 10° NNW visible
